Location: Unspecified
(0.0000°N, 0.0000°E)
Time: 20:50:34
(UTC+00:00)

ISS - Pass Details

Date: 28 March 2017
Orbit: 399 x 409 km, 51.6° (Epoch: 27 March)

Event Time Altitude Azimuth Distance (km) Brightness Sun altitude
Exits shadow 04:03:49 10° 54° (NE) 1,440 -0.4 -30.3°
Maximum altitude 04:03:49 10° 54° (NE) 1,440 -0.4 -30.3°
Drops below altitude 10° 04:04:24 10° 64° (ENE) 1,461 -0.2 -30.1°
Sets 04:08:09 0° 108° (ESE) 2,325 1.0 -29.2°
